When you browse on this site, cookies collect data to enhance your experience and personalize the content and advertising you see.
Visit our Privacy Policy to learn more. By continuing to use the site, you agree to this use of cookies and data.
  • In United Kingdom
  • List of Countries
  • For 7 days
  • Water Temperature
  • Satellite Maps
  • Weather Map
  • Weather Widgets
  • user-avatar
    Login

    Hourly Weather Santos Reyes Nopala

    Today, 26 March, Tuesday

    Time Temperature Precipitation Wind Pressure Humidity
    00:00 +24°C° 0 mm 1 mps 719 mmHg 70%
    01:00 +24°C° 0 mm 2 mps 719 mmHg 64%
    02:00 +23°C° 0 mm 2 mps 718 mmHg 59%
    03:00 +23°C° 0 mm 2 mps 718 mmHg 53%
    04:00 +21°C° 0 mm 2 mps 718 mmHg 53%
    05:00 +21°C° 0 mm 2 mps 718 mmHg 52%
    06:00 +21°C° 0 mm 2 mps 718 mmHg 52%
    07:00 +24°C° 0 mm 2 mps 719 mmHg 46%
    08:00 +27°C° 0 mm 1 mps 720 mmHg 40%
    09:00 +30°C° 0 mm 1 mps 720 mmHg 34%
    10:00 +32°C° 0 mm 1 mps 720 mmHg 29%
    11:00 +34°C° 0 mm 1 mps 720 mmHg 24%
    12:00 +37°C° 0 mm 2 mps 720 mmHg 20%
    13:00 +37°C° 0 mm 2 mps 719 mmHg 22%
    14:00 +36°C° 0 mm 2 mps 719 mmHg 24%
    15:00 +36°C° 0 mm 3 mps 718 mmHg 26%
    16:00 +34°C° 0 mm 2 mps 718 mmHg 34%
    17:00 +31°C° 0 mm 2 mps 718 mmHg 42%
    18:00 +29°C° 0 mm 2 mps 717 mmHg 51%
    19:00 +28°C° 0 mm 2 mps 718 mmHg 53%
    20:00 +26°C° 0 mm 2 mps 719 mmHg 56%
    21:00 +25°C° 0 mm 2 mps 719 mmHg 58%
    22:00 +24°C° 0 mm 2 mps 719 mmHg 52%
    23:00 +24°C° 0 mm 2 mps 720 mmHg 45%

    Tomorrow, 27 March, Wednesday

    Time Temperature Precipitation Wind Pressure Humidity
    00:00 +24°C° 0 mm 2 mps 720 mmHg 39%
    01:00 +23°C° 0 mm 2 mps 720 mmHg 40%
    02:00 +23°C° 0 mm 2 mps 719 mmHg 41%
    03:00 +23°C° 0 mm 2 mps 719 mmHg 42%
    04:00 +23°C° 0 mm 2 mps 719 mmHg 46%
    05:00 +21°C° 0 mm 2 mps 719 mmHg 49%
    06:00 +21°C° 0 mm 2 mps 719 mmHg 53%
    07:00 +25°C° 0 mm 2 mps 719 mmHg 44%
    08:00 +27°C° 0 mm 2 mps 720 mmHg 36%
    09:00 +29°C° 0 mm 2 mps 721 mmHg 27%
    10:00 +32°C° 0 mm 2 mps 721 mmHg 23%
    11:00 +36°C° 0 mm 2 mps 721 mmHg 20%
    12:00 +37°C° 0 mm 1 mps 721 mmHg 16%
    13:00 +38°C° 0 mm 2 mps 720 mmHg 19%
    14:00 +37°C° 0 mm 2 mps 719 mmHg 22%
    15:00 +37°C° 0 mm 2 mps 718 mmHg 26%
    16:00 +35°C° 0 mm 2 mps 718 mmHg 34%
    17:00 +32°C° 0 mm 2 mps 718 mmHg 42%
    18:00 +30°C° 0 mm 2 mps 718 mmHg 51%
    19:00 +28°C° 0 mm 2 mps 718 mmHg 54%
    20:00 +27°C° 0 mm 2 mps 719 mmHg 57%
    21:00 +25°C° 0 mm 2 mps 720 mmHg 60%
    22:00 +25°C° 0 mm 2 mps 720 mmHg 56%
    23:00 +25°C° 0 mm 2 mps 720 mmHg 52%

    Day after tomorrow, 28 March, Thursday

    Time Temperature Precipitation Wind Pressure Humidity
    00:00 +24°C° 0 mm 2 mps 720 mmHg 47%
    01:00 +24°C° 0 mm 2 mps 720 mmHg 49%
    02:00 +24°C° 0 mm 2 mps 719 mmHg 50%
    03:00 +23°C° 0 mm 2 mps 719 mmHg 51%
    04:00 +23°C° 0 mm 2 mps 719 mmHg 53%
    05:00 +21°C° 0 mm 2 mps 719 mmHg 54%
    06:00 +21°C° 0 mm 2 mps 719 mmHg 56%
    07:00 +25°C° 0 mm 2 mps 720 mmHg 47%
    08:00 +28°C° 0 mm 1 mps 721 mmHg 38%
    09:00 +31°C° 0 mm 1 mps 721 mmHg 29%
    10:00 +33°C° 0 mm 1 mps 721 mmHg 26%
    11:00 +35°C° 0 mm 1 mps 721 mmHg 23%
    12:00 +38°C° 0 mm 2 mps 721 mmHg 19%
    13:00 +37°C° 0 mm 2 mps 720 mmHg 22%
    14:00 +36°C° 0 mm 2 mps 719 mmHg 25%
    15:00 +36°C° 0 mm 3 mps 718 mmHg 28%
    16:00 +34°C° 0 mm 2 mps 718 mmHg 37%
    17:00 +31°C° 0 mm 2 mps 717 mmHg 45%
    18:00 +29°C° 0 mm 1 mps 717 mmHg 54%
    19:00 +28°C° 0 mm 1 mps 718 mmHg 62%
    20:00 +26°C° 0 mm 1 mps 719 mmHg 69%
    21:00 +25°C° 0 mm 1 mps 720 mmHg 77%
    22:00 +24°C° 0 mm 1 mps 720 mmHg 75%
    23:00 +24°C° 0 mm 1 mps 720 mmHg 72%

    29 March, Friday

    Time Temperature Precipitation Wind Pressure Humidity
    00:00 +24°C° 0 mm 1 mps 720 mmHg 70%
    01:00 +24°C° 0 mm 1 mps 719 mmHg 66%
    02:00 +24°C° 0 mm 1 mps 719 mmHg 63%
    03:00 +23°C° 0 mm 1 mps 718 mmHg 60%
    04:00 +23°C° 0 mm 1 mps 718 mmHg 58%
    05:00 +23°C° 0 mm 1 mps 718 mmHg 56%
    06:00 +23°C° 0 mm 1 mps 718 mmHg 55%
    07:00 +26°C° 0 mm 1 mps 719 mmHg 48%
    08:00 +29°C° 0 mm 1 mps 719 mmHg 41%
    09:00 +29°C° 0 mm 0 mps 720 mmHg 35%
    10:00 +32°C° 0 mm 1 mps 720 mmHg 33%
    11:00 +34°C° 0 mm 2 mps 719 mmHg 32%
    12:00 +35°C° 0 mm 2 mps 719 mmHg 30%
    13:00 +35°C° 0 mm 3 mps 718 mmHg 32%
    14:00 +35°C° 0 mm 3 mps 717 mmHg 34%
    15:00 +35°C° 0 mm 3 mps 717 mmHg 36%
    16:00 +33°C° 0 mm 3 mps 717 mmHg 42%
    17:00 +31°C° 0 mm 2 mps 716 mmHg 48%
    18:00 +29°C° 0 mm 2 mps 716 mmHg 54%
    19:00 +28°C° 0 mm 1 mps 717 mmHg 61%
    20:00 +26°C° 0 mm 1 mps 718 mmHg 69%
    21:00 +23°C° 0 mm 0 mps 718 mmHg 77%
    22:00 +24°C° 0 mm 1 mps 718 mmHg 77%
    23:00 +24°C° 0 mm 1 mps 718 mmHg 77%

    30 March, Saturday

    Time Temperature Precipitation Wind Pressure Humidity
    00:00 +24°C° 0 mm 1 mps 718 mmHg 77%
    01:00 +24°C° 0 mm 1 mps 718 mmHg 77%
    02:00 +23°C° 0 mm 1 mps 717 mmHg 77%
    03:00 +23°C° 0 mm 1 mps 717 mmHg 77%
    04:00 +23°C° 0 mm 1 mps 717 mmHg 76%
    05:00 +23°C° 0 mm 1 mps 717 mmHg 75%
    06:00 +23°C° 0 mm 1 mps 717 mmHg 75%
    07:00 +26°C° 0 mm 1 mps 718 mmHg 65%
    08:00 +28°C° 0 mm 1 mps 718 mmHg 56%
    09:00 +31°C° 0 mm 1 mps 719 mmHg 47%
    10:00 +32°C° 0 mm 1 mps 719 mmHg 42%
    11:00 +34°C° 0 mm 2 mps 718 mmHg 37%
    12:00 +35°C° 0 mm 3 mps 718 mmHg 32%
    13:00 +35°C° 0 mm 3 mps 717 mmHg 34%
    14:00 +35°C° 0 mm 3 mps 716 mmHg 36%
    15:00 +35°C° 0 mm 3 mps 715 mmHg 37%
    16:00 +33°C° 0 mm 3 mps 715 mmHg 44%
    17:00 +30°C° 0 mm 2 mps 715 mmHg 50%
    18:00 +29°C° 0 mm 2 mps 715 mmHg 56%
    19:00 +27°C° 0 mm 2 mps 716 mmHg 63%
    20:00 +26°C° 0 mm 1 mps 717 mmHg 70%
    21:00 +25°C° 0 mm 1 mps 717 mmHg 77%
    22:00 +24°C° 0 mm 1 mps 717 mmHg 76%
    23:00 +24°C° 0 mm 1 mps 717 mmHg 75%

    31 March, Sunday

    Time Temperature Precipitation Wind Pressure Humidity
    00:00 +24°C° 0 mm 1 mps 717 mmHg 74%
    01:00 +24°C° 0 mm 1 mps 717 mmHg 72%
    02:00 +24°C° 0 mm 1 mps 716 mmHg 71%
    03:00 +24°C° 0 mm 1 mps 716 mmHg 70%
    04:00 +24°C° 0 mm 1 mps 716 mmHg 69%
    05:00 +24°C° 0 mm 1 mps 716 mmHg 68%
    06:00 +24°C° 0 mm 1 mps 716 mmHg 67%
    07:00 +26°C° 0 mm 1 mps 717 mmHg 60%
    08:00 +29°C° 0 mm 1 mps 718 mmHg 52%
    09:00 +31°C° 0 mm 1 mps 718 mmHg 45%
    10:00 +32°C° 0 mm 1 mps 718 mmHg 42%
    11:00 +35°C° 0 mm 2 mps 718 mmHg 38%
    12:00 +36°C° 0 mm 2 mps 717 mmHg 34%
    13:00 +35°C° 0 mm 2 mps 717 mmHg 35%
    14:00 +35°C° 0 mm 3 mps 716 mmHg 36%
    15:00 +35°C° 0 mm 3 mps 715 mmHg 36%
    16:00 +32°C° 0 mm 2 mps 715 mmHg 43%
    17:00 +31°C° 0 mm 2 mps 715 mmHg 49%
    18:00 +29°C° 0 mm 2 mps 715 mmHg 55%
    19:00 +27°C° 0 mm 1 mps 716 mmHg 62%
    20:00 +26°C° 0 mm 1 mps 717 mmHg 70%
    21:00 +22°C° 0 mm 0 mps 717 mmHg 77%
    22:00 +22°C° 0 mm 0 mps 717 mmHg 77%
    23:00 +24°C° 0 mm 1 mps 717 mmHg 78%
    Show more